Tracking 30696 objects as of 15-Jun-2025
HD Live streaming from Space Station
objects crossing your sky now

SL-16 DEB

Track SL-16 DEB now!
10-day predictions


NORAD ID: 23709
Int'l Code: 1995-058F
Perigee: 845.2 km
Apogee: 1,134.7 km
Inclination: 71.0 °
Period: 104.8 minutes
Semi major axis: 7360 km
RCS: 0.088 m2 (small)
Launch date: October 31, 1995
Source: Commonwealth of Independent States (former USSR) (CIS)
Launch site: TYURATAM MISSILE AND SPACE COMPLEX (TTMTR)

Note: This is SATELLITE DEBRIS
Your satellite tracking list
Your tracking list is empty




NASA's NSSDC Master Catalog

Two Line Element Set (TLE):
1 23709U 95058F   25165.56116017  .00000059  00000-0  92461-4 0  9994
2 23709  71.0372 104.2201 0196643 157.2254  21.4381 13.74686376485476
Source of the keplerian elements: AFSPC